HYS439 LROP-LUKK

Flight info

Callsign HYS439
Flight time 0h 38m
Altitude 230
Route DENA1K DENAK DCT URELA DCT FOCSA DCT KENUX DCT BCU DCT BUSES BUSE5A
Aircraft A320/M-V/N

Departure

Time 2026-05-04 12:20
Airport Bucharest Henri Coandă International Airport (LROP)

Arrival

Time 2026-05-04 12:59
Airport Chişinău International Airport (LUKK)
Time Latitude Longitude Altitude Speed Heading
2026-05-04 12:01 44.57029 26.08197 321 ft 0 kts 353°
2026-05-04 12:07 44.57027 26.08197 320 ft 2 kts 353°
2026-05-04 12:07 44.57010 26.08200 320 ft 3 kts 353°
2026-05-04 12:08 44.56992 26.08203 315 ft 3 kts 353°
2026-05-04 12:08 44.56975 26.08206 320 ft 3 kts 353°
2026-05-04 12:08 44.56958 26.08205 320 ft 2 kts 49°
2026-05-04 12:08 44.56953 26.08197 320 ft 0 kts 79°
2026-05-04 12:09 44.56953 26.08200 320 ft 0 kts 79°
2026-05-04 12:10 44.56954 26.08207 320 ft 1 kts 79°
2026-05-04 12:10 44.56956 26.08221 320 ft 2 kts 79°
2026-05-04 12:10 44.56959 26.08243 320 ft 0 kts 79°
2026-05-04 12:12 44.56959 26.08244 320 ft 1 kts 79°
2026-05-04 12:12 44.56961 26.08261 320 ft 3 kts 86°
2026-05-04 12:12 44.56960 26.08300 320 ft 5 kts 95°
2026-05-04 12:13 44.56957 26.08319 320 ft 1 kts 99°
2026-05-04 12:14 44.57125 26.08520 320 ft 15 kts 354°
2026-05-04 12:15 44.57239 26.08503 320 ft 18 kts 354°
2026-05-04 12:15 44.57368 26.08484 320 ft 20 kts 354°
2026-05-04 12:15 44.57458 26.08472 321 ft 0 kts 353°
2026-05-04 12:16 44.57460 26.08471 321 ft 1 kts 353°
2026-05-04 12:16 44.57474 26.08469 321 ft 3 kts 353°
2026-05-04 12:16 44.57501 26.08465 321 ft 5 kts 353°
2026-05-04 12:16 44.57530 26.08460 319 ft 0 kts 353°
2026-05-04 12:17 44.57537 26.08459 320 ft 2 kts 354°
2026-05-04 12:17 44.57553 26.08457 321 ft 3 kts 354°
2026-05-04 12:18 44.57575 26.08454 322 ft 4 kts 354°
2026-05-04 12:18 44.57600 26.08451 320 ft 4 kts 356°
2026-05-04 12:18 44.57624 26.08452 323 ft 3 kts
2026-05-04 12:18 44.57652 26.08470 323 ft 7 kts 35°
2026-05-04 12:19 44.57671 26.08538 324 ft 9 kts 81°
2026-05-04 12:19 44.57683 26.08660 322 ft 29 kts 83°
2026-05-04 12:19 44.57740 26.09384 319 ft 116 kts 84°
2026-05-04 12:19 44.57849 26.10814 336 ft 175 kts 83°
2026-05-04 12:20 44.57971 26.12628 831 ft 197 kts 85°
2026-05-04 12:20 44.58078 26.14634 1373 ft 212 kts 85°
2026-05-04 12:20 44.58196 26.16690 2199 ft 212 kts 83°
2026-05-04 12:20 44.58364 26.18848 2610 ft 234 kts 82°
2026-05-04 12:21 44.58569 26.21231 3054 ft 257 kts 81°
2026-05-04 12:21 44.58784 26.23749 3893 ft 262 kts 80°
2026-05-04 12:21 44.58988 26.26277 4923 ft 260 kts 79°
2026-05-04 12:21 44.59180 26.28783 5968 ft 257 kts 78°
2026-05-04 12:22 44.59366 26.31279 6921 ft 257 kts 78°
2026-05-04 12:22 44.59818 26.33661 7776 ft 251 kts 58°
2026-05-04 12:22 44.60901 26.35537 8613 ft 248 kts 37°
2026-05-04 12:22 44.62396 26.36754 9482 ft 250 kts 27°
2026-05-04 12:23 44.63930 26.37855 10254 ft 254 kts 27°
2026-05-04 12:23 44.65577 26.39035 10510 ft 277 kts 27°
2026-05-04 12:23 44.67362 26.40318 10738 ft 297 kts 28°
2026-05-04 12:23 44.69230 26.41665 11304 ft 305 kts 28°
2026-05-04 12:24 44.71129 26.43038 11972 ft 309 kts 28°
2026-05-04 12:24 44.73052 26.44431 12646 ft 313 kts 29°
2026-05-04 12:24 44.75000 26.45843 13315 ft 317 kts 29°
2026-05-04 12:24 44.76971 26.47274 13964 ft 320 kts 29°
2026-05-04 12:25 44.78963 26.48717 14541 ft 324 kts 29°
2026-05-04 12:25 44.80984 26.50182 15102 ft 329 kts 29°
2026-05-04 12:25 44.83028 26.51669 15652 ft 333 kts 29°
2026-05-04 12:25 44.85095 26.53175 16194 ft 337 kts 29°
2026-05-04 12:26 44.87187 26.54700 16735 ft 341 kts 28°
2026-05-04 12:26 44.89307 26.56245 17289 ft 345 kts 28°
2026-05-04 12:26 44.91455 26.57810 17836 ft 349 kts 28°
2026-05-04 12:26 44.93626 26.59393 18377 ft 353 kts 28°
2026-05-04 12:27 44.95821 26.60994 18853 ft 357 kts 28°
2026-05-04 12:27 44.98041 26.62614 19353 ft 361 kts 28°
2026-05-04 12:27 45.00286 26.64254 19843 ft 365 kts 28°
2026-05-04 12:27 45.02550 26.65906 20326 ft 368 kts 28°
2026-05-04 12:28 45.04840 26.67581 20800 ft 372 kts 28°
2026-05-04 12:28 45.07143 26.69269 21259 ft 375 kts 28°
2026-05-04 12:28 45.09442 26.70954 21704 ft 379 kts 28°
2026-05-04 12:28 45.11791 26.72682 22151 ft 382 kts 28°
2026-05-04 12:29 45.14161 26.74428 22588 ft 386 kts 28°
2026-05-04 12:29 45.16552 26.76189 22950 ft 389 kts 27°
2026-05-04 12:29 45.18962 26.77963 23033 ft 392 kts 27°
2026-05-04 12:29 45.21385 26.79751 23037 ft 393 kts 27°
2026-05-04 12:30 45.23813 26.81546 23035 ft 394 kts 27°
2026-05-04 12:30 45.26243 26.83344 23038 ft 394 kts 27°
2026-05-04 12:30 45.28672 26.85143 23038 ft 394 kts 27°
2026-05-04 12:30 45.31102 26.86940 23038 ft 394 kts 27°
2026-05-04 12:31 45.33533 26.88740 23040 ft 394 kts 27°
2026-05-04 12:31 45.35963 26.90541 23037 ft 394 kts 27°
2026-05-04 12:31 45.38394 26.92346 23034 ft 394 kts 27°
2026-05-04 12:31 45.40821 26.94151 23028 ft 394 kts 27°
2026-05-04 12:32 45.43256 26.95962 23014 ft 395 kts 27°
2026-05-04 12:32 45.48127 26.99597 23018 ft 395 kts 27°
2026-05-04 12:32 45.50561 27.01418 23024 ft 395 kts 27°
2026-05-04 12:33 45.52998 27.03235 23026 ft 396 kts 27°
2026-05-04 12:33 45.55439 27.05055 23026 ft 396 kts 27°
2026-05-04 12:33 45.57881 27.06877 23030 ft 396 kts 27°
2026-05-04 12:33 45.60316 27.08700 23025 ft 396 kts 27°
2026-05-04 12:34 45.62755 27.10533 23028 ft 396 kts 27°
2026-05-04 12:34 45.65189 27.12367 23029 ft 396 kts 27°
2026-05-04 12:34 45.67594 27.14180 23027 ft 396 kts 27°
2026-05-04 12:34 45.70031 27.16014 23031 ft 396 kts 27°
2026-05-04 12:35 45.72467 27.17847 23027 ft 396 kts 27°
2026-05-04 12:35 45.74907 27.19683 23028 ft 396 kts 27°
2026-05-04 12:35 45.77346 27.21519 23024 ft 397 kts 27°
2026-05-04 12:35 45.79788 27.23361 23022 ft 397 kts 27°
2026-05-04 12:36 45.82232 27.25209 23022 ft 397 kts 27°
2026-05-04 12:36 45.84676 27.27057 23021 ft 397 kts 27°
2026-05-04 12:36 45.87124 27.28908 23022 ft 398 kts 27°
2026-05-04 12:36 45.89570 27.30760 23023 ft 398 kts 27°
2026-05-04 12:37 45.92017 27.32617 23024 ft 398 kts 27°
2026-05-04 12:37 45.94463 27.34481 23023 ft 398 kts 27°
2026-05-04 12:37 45.96909 27.36346 23022 ft 398 kts 27°
2026-05-04 12:37 45.99359 27.38216 23022 ft 398 kts 27°
2026-05-04 12:38 46.01805 27.40082 23019 ft 399 kts 27°
2026-05-04 12:38 46.04257 27.41947 23024 ft 399 kts 27°
2026-05-04 12:38 46.06710 27.43815 23026 ft 399 kts 27°
2026-05-04 12:38 46.09163 27.45686 23028 ft 399 kts 27°
2026-05-04 12:39 46.11615 27.47559 23031 ft 399 kts 27°
2026-05-04 12:39 46.14064 27.49437 23027 ft 399 kts 27°
2026-05-04 12:39 46.16476 27.51288 23018 ft 392 kts 27°
2026-05-04 12:39 46.18846 27.53109 22822 ft 381 kts 27°
2026-05-04 12:40 46.21162 27.54891 22430 ft 375 kts 27°
2026-05-04 12:40 46.23450 27.56651 22002 ft 370 kts 27°
2026-05-04 12:40 46.25712 27.58390 21575 ft 366 kts 27°
2026-05-04 12:40 46.27947 27.60110 21154 ft 362 kts 28°
2026-05-04 12:41 46.30151 27.61811 20738 ft 357 kts 28°
2026-05-04 12:41 46.32334 27.63495 20321 ft 353 kts 28°
2026-05-04 12:41 46.34490 27.65157 19890 ft 349 kts 28°
2026-05-04 12:41 46.36619 27.66801 19479 ft 345 kts 29°
2026-05-04 12:42 46.38722 27.68428 19081 ft 340 kts 29°
2026-05-04 12:42 46.40796 27.70033 18680 ft 336 kts 30°
2026-05-04 12:42 46.42843 27.71621 18282 ft 332 kts 30°
2026-05-04 12:42 46.44868 27.73195 17822 ft 328 kts 30°
2026-05-04 12:43 46.46874 27.74754 17336 ft 326 kts 30°
2026-05-04 12:43 46.48861 27.76300 16873 ft 323 kts 30°
2026-05-04 12:43 46.50834 27.77833 16391 ft 321 kts 30°
2026-05-04 12:43 46.52768 27.79334 15934 ft 318 kts 30°
2026-05-04 12:44 46.54713 27.80849 15470 ft 316 kts 30°
2026-05-04 12:44 46.56642 27.82354 15001 ft 314 kts 30°
2026-05-04 12:44 46.58560 27.83851 14558 ft 312 kts 30°
2026-05-04 12:44 46.60463 27.85339 14141 ft 309 kts 30°
2026-05-04 12:45 46.62350 27.86818 13709 ft 307 kts 30°
2026-05-04 12:45 46.64223 27.88284 13245 ft 305 kts 30°
2026-05-04 12:45 46.66083 27.89738 12768 ft 303 kts 30°
2026-05-04 12:45 46.67935 27.91186 12323 ft 301 kts 30°
2026-05-04 12:46 46.69774 27.92626 11899 ft 299 kts 30°
2026-05-04 12:46 46.71596 27.94054 11481 ft 296 kts 30°
2026-05-04 12:46 46.73401 27.95471 11171 ft 292 kts 30°
2026-05-04 12:46 46.75158 27.96851 10978 ft 283 kts 30°
2026-05-04 12:47 46.76874 27.98200 10744 ft 277 kts 30°
2026-05-04 12:47 46.78557 27.99522 10499 ft 272 kts 30°
2026-05-04 12:47 46.80205 28.00816 10256 ft 267 kts 30°
2026-05-04 12:47 46.81827 28.02095 10030 ft 262 kts 30°
2026-05-04 12:48 46.83431 28.03365 9748 ft 261 kts 30°
2026-05-04 12:48 46.85023 28.04624 9580 ft 260 kts 30°
2026-05-04 12:48 46.86611 28.05878 9439 ft 260 kts 30°
2026-05-04 12:48 46.88179 28.07116 9264 ft 260 kts 30°
2026-05-04 12:49 46.89769 28.08372 9109 ft 260 kts 30°
2026-05-04 12:49 46.91275 28.09809 8916 ft 258 kts 39°
2026-05-04 12:49 46.92564 28.11624 8741 ft 258 kts 49°
2026-05-04 12:49 46.93610 28.13756 8551 ft 258 kts 58°
2026-05-04 12:50 46.94425 28.16102 8379 ft 258 kts 62°
2026-05-04 12:50 46.95212 28.18459 8195 ft 258 kts 62°
2026-05-04 12:50 46.96002 28.20815 8022 ft 258 kts 62°
2026-05-04 12:50 46.96793 28.23172 7837 ft 258 kts 62°
2026-05-04 12:51 46.97583 28.25527 7671 ft 257 kts 62°
2026-05-04 12:51 46.98367 28.27872 7495 ft 257 kts 62°
2026-05-04 12:51 46.99152 28.30221 7318 ft 256 kts 62°
2026-05-04 12:51 46.99933 28.32561 7140 ft 256 kts 62°
2026-05-04 12:52 47.00711 28.34901 6970 ft 256 kts 63°
2026-05-04 12:52 47.01203 28.37407 6794 ft 259 kts 81°
2026-05-04 12:52 47.01089 28.40047 6625 ft 263 kts 100°
2026-05-04 12:52 47.00369 28.42528 6452 ft 268 kts 117°
2026-05-04 12:53 46.99381 28.44862 6241 ft 271 kts 118°
2026-05-04 12:53 46.98387 28.47205 5913 ft 271 kts 118°
2026-05-04 12:53 46.97389 28.49550 5577 ft 271 kts 118°
2026-05-04 12:53 46.96396 28.51881 5248 ft 270 kts 118°
2026-05-04 12:54 46.95419 28.54180 4920 ft 269 kts 119°
2026-05-04 12:54 46.94437 28.56498 4617 ft 268 kts 119°
2026-05-04 12:54 46.93451 28.58827 4276 ft 269 kts 120°
2026-05-04 12:54 46.92498 28.61178 3955 ft 268 kts 112°
2026-05-04 12:55 46.92128 28.63809 3626 ft 264 kts 87°
2026-05-04 12:55 46.92186 28.66496 3299 ft 264 kts 85°
2026-05-04 12:55 46.92258 28.69142 2965 ft 256 kts 84°
2026-05-04 12:55 46.92317 28.71682 2638 ft 245 kts 85°
2026-05-04 12:56 46.92370 28.74093 2494 ft 227 kts 85°
2026-05-04 12:56 46.92418 28.76309 2341 ft 210 kts 85°
2026-05-04 12:56 46.92465 28.78403 2106 ft 201 kts 86°
2026-05-04 12:56 46.92508 28.80377 1848 ft 188 kts 84°
2026-05-04 12:57 46.92548 28.82224 1603 ft 175 kts 84°
2026-05-04 12:57 46.92583 28.83905 1391 ft 157 kts 85°
2026-05-04 12:57 46.92617 28.85445 1187 ft 147 kts 85°
2026-05-04 12:57 46.92648 28.86907 982 ft 143 kts 87°
2026-05-04 12:58 46.92680 28.88345 766 ft 140 kts 86°
2026-05-04 12:58 46.92710 28.89773 591 ft 141 kts 87°
2026-05-04 12:58 46.92734 28.91195 411 ft 140 kts 88°
2026-05-04 12:58 46.92760 28.92433 409 ft 99 kts 87°
2026-05-04 12:59 46.92779 28.93130 408 ft 27 kts 88°
2026-05-04 12:59 46.92786 28.93352 408 ft 14 kts 84°
2026-05-04 12:59 46.92856 28.93417 409 ft 14 kts
2026-05-04 12:59 46.92917 28.93415 409 ft 0 kts 358°
2026-05-04 13:00 46.92919 28.93415 409 ft 1 kts 358°
2026-05-04 13:00 46.92935 28.93414 406 ft 4 kts 358°
2026-05-04 13:00 46.92967 28.93413 404 ft 6 kts
2026-05-04 13:01 46.93014 28.93420 409 ft 8 kts
2026-05-04 13:01 46.93074 28.93431 409 ft 9 kts
2026-05-04 13:01 46.93139 28.93443 409 ft 10 kts
2026-05-04 13:01 46.93220 28.93455 409 ft 14 kts
2026-05-04 13:02 46.93299 28.93469 408 ft 11 kts
2026-05-04 13:02 46.93326 28.93531 408 ft 9 kts 94°
2026-05-04 13:02 46.93331 28.93592 408 ft 6 kts 58°
2026-05-04 13:02 46.93371 28.93602 408 ft 0 kts
2026-05-04 13:03 46.93372 28.93602 408 ft 1 kts
2026-05-04 13:03 46.93374 28.93603 408 ft 0 kts